845  
NZUS93 KARX 220059  
HRRWXR  
 
CURRENT HOURLY OBSERVATIONS ACROSS  
MUCH OF THE UPPER MISSISSIPPI VALLEY  
NATIONAL WEATHER SERVICE LA CROSSE WI  
800 PM CDT SAT OCT 21 2017  
 
   
..SOUTHEAST MINNESOTA
 
 
 
CITY SKY/WX TMP DP RH WIND PRES REMARKS  
ROCHESTER CLOUDY 67 60 78 S15 29.76S  
ROCHESTER/MAYO CLOUDY 67 59 76 SE7G16 29.75S  
WINONA CLOUDY 70 59 68 S3 29.76S  
AUSTIN TSTM 61 57 88 S14G20 29.76R  
ALBERT LEA NOT AVBL  
DODGE CENTER TSTM 64 59 82 SW21G26 29.77R  
PRESTON CLOUDY 67 59 73 S14G21 29.77F  
OWATONNA CLOUDY 55 54 94 W8G16 29.77R  
FARIBAULT CLOUDY 57 54 88 W5 29.77R  

 
   
..ELSEWHERE IN MINNESOTA
 
 
 
CITY SKY/WX TMP DP RH WIND PRES REMARKS  
MINNEAPOLIS CLOUDY 57 53 86 W16 29.74R  
INTNL FALLS LGT RAIN 62 59 90 SE7 29.55S  
DULUTH CLOUDY 62 60 93 S14 29.67S  
RED WING CLOUDY 70 57 64 S10G23 29.71S  
REDWOOD FALLS CLOUDY 54 44 69 W18G24 29.79R  
MANKATO LGT RAIN 55 51 86 W6 29.79R  
WORTHINGTON PTCLDY 50 42 74 W14 29.86R  
FAIRMONT CLOUDY 55 47 74 W8 29.81R  

 
   
..SOUTHWEST WISCONSIN
 
 
 
CITY SKY/WX TMP DP RH WIND PRES REMARKS  
LA CROSSE CLOUDY 71 61 70 S6 29.78F  
PRAIRIE DU CHI CLOUDY 74 58 56 SE8 29.81F  
BOSCOBEL CLOUDY 75 59 57 S8 29.83F  
LONE ROCK CLOUDY 73 60 63 S12 29.86S  
PLATTEVILLE MOCLDY 72 61 68 SE13 29.87F  
FORT MC COY PTCLDY 69 60 71 SE7 29.82F  
MAUSTON-NEW LI CLOUDY 72 59 63 S7 29.85S  
VIROQUA CLOUDY 67 62 83 SE8 29.83F  
WIS DELLS CLOUDY 70 56 60 S9 29.88S  

 
   
..ELSEWHERE IN WISCONSIN
 
 
 
CITY SKY/WX TMP DP RH WIND PRES REMARKS  
MILWAUKEE PTCLDY 68 58 70 S10 29.98R  
MADISON PTCLDY 71 58 63 S14 29.91R  
GREEN BAY CLEAR 64 57 78 S9 29.92R  
EAU CLAIRE CLOUDY 67 58 72 S13 29.75F  
BLACK RVR FLS CLOUDY 69 57 65 CALM 29.80F  
MEDFORD CLOUDY 64 57 78 SE7 29.83S  
WAUSAU CLOUDY 69 58 67 S8 29.84R  
WIS RAPIDS CLEAR 70 58 65 S10G17 29.86S  
MARSHFIELD MOCLDY 69 56 62 S14 29.83S  
RICE LAKE CLOUDY 66 58 76 SE12 29.76S  

 
   
..NORTHEAST IOWA
 
 
 
CITY SKY/WX TMP DP RH WIND PRES REMARKS  
WATERLOO TSTM 66 63 90 SW12G21 29.78R FOG  
DUBUQUE PTCLDY 70 59 68 S15 29.86F  
DECORAH CLOUDY 70 61 73 SE8G17 29.78S  
MASON CITY LGT RAIN 57 54 89 NW10 29.81R  
CHARLES CITY LGT RAIN 66 66 100 S12G17 29.78R  
OELWEIN CLOUDY 70 63 78 S16 29.78F  

 
   
..ELSEWHERE IN IOWA
 
 
 
CITY SKY/WX TMP DP RH WIND PRES REMARKS  
DES MOINES TSTM 58 57 97 N17 29.77R FOG  
IOWA CITY MOCLDY 74 61 63 SE10 29.85F  
FORT DODGE CLOUDY 55 50 83 W5 29.84R  
MARSHALLTOWN TSTM 66 62 87 S12 29.77R  
CEDAR RAPIDS PTCLDY 72 61 68 S12 29.81F  

 
   
..NORTHERN ILLINOIS
 
 
 
CITY SKY/WX TMP DP RH WIND PRES REMARKS  
CHICAGO-OHARE PTCLDY 71 57 61 S15 30.00S  
CHICAGO-MIDWAY PTCLDY 72 58 61 S17G29 30.02S  
MOLINE PTCLDY 73 61 65 S14 29.89F  
ROCKFORD PTCLDY 69 58 67 S15 29.96F  
PEORIA CLEAR 72 59 63 S16G23 29.97S  

 
 
NOTE: "FAIR" INDICATES FEW OR NO CLOUDS BELOW 12,000 FEET WITH NO  
SIGNIFICANT WEATHER AND/OR OBSTRUCTIONS TO VISIBILITY. WIND  
SPEEDS ARE IN MILES-PER-HOUR.  
 
 
CLICK HERE TO GO TO PREVIOUS BULLETINS.

The Nexlab WI Page
The Nexlab IA Page
The Nexlab MN Page Main Text Page